Location: Sebastopol
(38.4021°N, 122.8239°W)
Time: 14:21:07
(UTC+00:00)

ADEOS - Pass Details

Date: 29 October 2020
Orbit: 793 x 794 km, 98.9° (Epoch: 30 November)

Event Time Altitude Azimuth Distance (km) Brightness Sun altitude
Rises 12:41:07 0° 14° (NNE) 3,302 7.0 -22.9°
Reaches altitude 10° 12:43:27 10° 15° (NNE) 2,369 6.2 -22.4°
Maximum altitude 12:48:41 84° 103° (ESE) 803 3.6 -21.4°
Drops below altitude 10° 12:53:54 10° 193° (SSW) 2,353 5.9 -20.4°
Sets 12:56:13 0° 193° (SSW) 3,278 6.7 -19.9°
